Mattoon, IL

9:02 AM CDT on October 23, 2019 (GMT -0500)
Coles County Memorial

Weather History for KMTO - May, 2019

Change the Weather History Date:

Thursday, May 9, 2019

  Actual Average Record
Temperature  
Mean Temperature 60 °F 61 °F  
Max Temperature 70 °F 71 °F 89 °F (1963)
Min Temperature 49 °F 51 °F 31 °F (1966)
Degree Days  
Heating Degree Days 5 5  
Month to date heating degree days 43 53  
Since 1 July heating degree days 5430 5315  
Cooling Degree Days 0 1  
Month to date cooling degree days 5 9  
Year to date cooling degree days 10 23  
Growing Degree Days 12 (Base 50)    
Moisture  
Dew Point 60 °F    
Average Humidity 86    
Maximum Humidity 100    
Minimum Humidity 71    
Precipitation  
Precipitation 0.27 in 0.14 in 1.20 in (1968)
Month to date precipitation 0.74 1.38  
Year to date precipitation 9.76 11.36  
Sea Level Pressure  
Sea Level Pressure 29.79 in    
Wind  
Wind Speed 12 mph (WSW)    
Max Wind Speed 21 mph    
Max Gust Speed 35 mph    
Visibility 8 miles    
Events Rain    
T = Trace of Precipitation, MM = Missing Value Source: NWS Daily Summary

Daily Weather History Graph

Daily Weather History Graph

Search for Another Location

Airport or City:

Astronomy

May. 09, 2019 Rise Set
Actual Time 5:45 AM CDT 7:54 PM CDT
Civil Twilight 5:15 AM CDT 8:24 PM CDT
Nautical Twilight 4:39 AM CDT 9:00 PM CDT
Astronomical Twilight 3:59 AM CDT 9:40 PM CDT
Moon 9:40 AM CDT (5/9) No Moon Set
Length of Visible Light 15h 08m
Length of Day
14h 09m
Waxing Crescent, 25% of the Moon is Illuminated
May 9
Waxing Crescent
May 11
First Quarter
May 18
Full
May 26
Last Quarter
Jun 3
New

Hourly Weather History & Observations

Time (CDT) Temp. Dew Point Humidity Pressure Visibility Wind Dir Wind Speed Gust Speed Precip Events Conditions
12:53 AM 72.0 °F 61.0 °F 68% 29.71 in 10.0 mi South 13.8 mph - 0.00 in Rain Light Rain
1:25 AM 66.9 °F 64.0 °F 90% 29.75 in 2.5 mi South 6.9 mph - 0.08 in Rain Heavy Rain
1:34 AM 66.0 °F 64.0 °F 93% 29.74 in 4.0 mi SSE 5.8 mph - 0.11 in Rain Rain
1:53 AM 66.9 °F 64.0 °F 90% 29.70 in 8.0 mi South 8.1 mph - 0.11 in Rain Light Rain
2:53 AM 66.9 °F 63.0 °F 87% 29.67 in 10.0 mi South 13.8 mph 25.3 mph 0.00 in   Overcast
3:18 AM 66.0 °F 64.0 °F 93% 29.68 in 10.0 mi South 15.0 mph 23.0 mph 0.00 in Rain Light Rain
3:53 AM 66.9 °F 64.9 °F 93% 29.66 in 9.0 mi South 18.4 mph 31.1 mph 0.01 in Rain Light Rain
4:28 AM 66.0 °F 64.9 °F 96% 29.71 in 2.0 mi WSW 9.2 mph 29.9 mph 0.05 in Rain Heavy Rain
4:39 AM 66.0 °F 64.9 °F 96% 29.71 in 3.0 mi SW 8.1 mph - 0.08 in Rain Rain
4:53 AM 66.0 °F 64.9 °F 96% 29.70 in 4.0 mi SW 6.9 mph - 0.08 in Rain Light Rain
5:02 AM 66.0 °F 64.0 °F 93% 29.72 in 2.5 mi SW 8.1 mph - 0.01 in Rain Light Rain
5:13 AM 66.0 °F 64.9 °F 96% 29.71 in 3.0 mi South 8.1 mph - 0.04 in Rain Light Rain
5:43 AM 64.9 °F 64.9 °F 100% 29.71 in 10.0 mi South 5.8 mph - 0.04 in   Overcast
5:50 AM 64.4 °F 64.4 °F 100% 29.71 in 10.0 mi South 5.8 mph - 0.04 in   Overcast
5:53 AM 64.9 °F 64.9 °F 100% 29.70 in 10.0 mi SSW 6.9 mph - 0.04 in   Overcast
5:58 AM 64.9 °F 64.9 °F 100% 29.72 in 10.0 mi South 6.9 mph - N/A   Overcast
6:15 AM 66.0 °F 64.9 °F 96% 29.73 in 10.0 mi SSW 8.1 mph - N/A   Overcast
6:53 AM 66.0 °F 66.0 °F 100% 29.73 in 10.0 mi SSW 6.9 mph - N/A   Overcast
7:25 AM 66.9 °F 64.9 °F 93% 29.76 in 10.0 mi SW 11.5 mph - N/A   Overcast
7:53 AM 66.0 °F 64.9 °F 96% 29.74 in 10.0 mi SW 9.2 mph - N/A   Overcast
8:53 AM 66.9 °F 63.0 °F 87% 29.75 in 10.0 mi SW 11.5 mph 24.2 mph N/A   Overcast
9:03 AM 66.9 °F 63.0 °F 87% 29.77 in 10.0 mi WSW 11.5 mph 19.6 mph N/A   Overcast
9:44 AM 66.9 °F 62.1 °F 84% 29.78 in 10.0 mi SW 9.2 mph 20.7 mph N/A   Overcast
9:53 AM 68.0 °F 62.1 °F 81% 29.77 in 10.0 mi SW 12.7 mph 19.6 mph N/A   Overcast
10:04 AM 68.0 °F 62.1 °F 81% 29.78 in 10.0 mi SW 12.7 mph 20.7 mph N/A   Overcast
10:16 AM 68.0 °F 61.0 °F 78% 29.78 in 10.0 mi SW 11.5 mph 21.9 mph N/A   Mostly Cloudy
10:49 AM 68.0 °F 62.6 °F 83% 29.79 in 10.0 mi SW 12.7 mph 19.6 mph N/A   Mostly Cloudy
10:53 AM 68.0 °F 61.0 °F 78% 29.78 in 10.0 mi SW 11.5 mph 20.7 mph N/A   Mostly Cloudy
11:28 AM 69.1 °F 62.1 °F 78% 29.81 in 10.0 mi SW 8.1 mph 18.4 mph N/A   Overcast
11:53 AM 68.0 °F 61.0 °F 78% 29.80 in 10.0 mi SW 11.5 mph 23.0 mph N/A   Overcast
12:53 PM 70.0 °F 61.0 °F 73% 29.80 in 10.0 mi SW 12.7 mph 20.7 mph N/A   Overcast
1:53 PM 69.1 °F 60.1 °F 73% 29.80 in 10.0 mi SW 10.4 mph 20.7 mph N/A   Overcast
2:18 PM 68.0 °F 62.1 °F 81% 29.81 in 8.0 mi SW 8.1 mph - 0.00 in Rain Light Rain
2:43 PM 64.0 °F 61.0 °F 90% 29.82 in 10.0 mi WNW 11.5 mph - 0.01 in Rain Light Rain
2:53 PM 64.0 °F 61.0 °F 90% 29.82 in 4.0 mi WNW 13.8 mph - 0.01 in Rain Rain
3:07 PM 63.0 °F 61.0 °F 93% 29.83 in 9.0 mi WNW 12.7 mph - 0.01 in Rain Light Rain
3:53 PM 61.0 °F 57.9 °F 90% 29.83 in 6.0 mi NW 11.5 mph - 0.01 in Rain Light Rain
4:53 PM 57.9 °F 55.9 °F 93% 29.84 in 2.5 mi NW 16.1 mph - 0.01 in Rain Light Rain
5:00 PM 57.9 °F 55.0 °F 90% 29.85 in 7.0 mi NW 17.3 mph - 0.00 in Rain Light Rain
5:43 PM 57.0 °F 54.0 °F 89% 29.87 in 10.0 mi WNW 11.5 mph - 0.00 in   Overcast
5:53 PM 57.0 °F 54.0 °F 89% 29.87 in 10.0 mi WNW 9.2 mph - 0.00 in   Overcast
6:01 PM 57.0 °F 54.0 °F 89% 29.88 in 10.0 mi NW 12.7 mph - N/A   Overcast
6:29 PM 55.9 °F 52.0 °F 87% 29.88 in 10.0 mi WNW 15.0 mph - N/A   Overcast
6:53 PM 55.9 °F 52.0 °F 87% 29.89 in 10.0 mi WNW 15.0 mph - N/A   Overcast
7:08 PM 55.9 °F 52.0 °F 87% 29.90 in 10.0 mi WNW 16.1 mph - N/A   Overcast
7:37 PM 55.9 °F 51.1 °F 84% 29.90 in 10.0 mi NW 13.8 mph - N/A   Overcast
7:53 PM 55.0 °F 51.1 °F 86% 29.91 in 10.0 mi NW 11.5 mph - N/A   Overcast
8:53 PM 55.0 °F 50.0 °F 83% 29.92 in 10.0 mi NW 15.0 mph 20.7 mph N/A   Overcast
9:53 PM 52.0 °F 45.0 °F 77% 29.97 in 10.0 mi NW 12.7 mph - N/A   Overcast
10:53 PM 51.1 °F 43.0 °F 74% 29.98 in 10.0 mi NW 15.0 mph - N/A   Overcast
11:53 PM 50.0 °F 43.0 °F 77% 29.99 in 10.0 mi NW 12.7 mph - N/A   Overcast